owner,sensor,date,latitude,longitude,vertical_datum,mass_concentration_of_oxygen_in_sea_water,qcFlag 
DISL,ioos:station:DISL:MHPA:1,2013-05-01T00:00:00Z,30.6671,-87.9365,4.78,9.03,1111122 
DISL,ioos:station:DISL:MHPA:1,2013-05-01T00:30:00Z,30.6671,-87.9365,4.712,8.67,1111122 
DISL,ioos:station:DISL:MHPA:1,2013-05-01T01:00:00Z,30.6671,-87.9365,4.648,8.27,1111122 
DISL,ioos:station:DISL:MHPA:1,2013-05-01T01:30:00Z,30.6671,-87.9365,4.512,8.45,1111122 
DISL,ioos:station:DISL:MHPA:1,2013-05-01T02:00:00Z,30.6671,-87.9365,4.348,8.51,1111122 
DISL,ioos:station:DISL:MHPA:1,2013-05-01T02:30:00Z,30.6671,-87.9365,4.231,8.39,1111122 
DISL,ioos:station:DISL:MHPA:1,2013-05-01T03:00:00Z,30.6671,-87.9365,4.154,8.46,1111122 
DISL,ioos:station:DISL:MHPA:1,2013-05-01T03:30:00Z,30.6671,-87.9365,4.057,8.54,1111122 
DISL,ioos:station:DISL:MHPA:1,2013-05-01T04:00:00Z,30.6671,-87.9365,3.903,8.66,1111122 
DISL,ioos:station:DISL:MHPA:1,2013-05-01T04:30:00Z,30.6671,-87.9365,3.78,8.61,1111122 
DISL,ioos:station:DISL:MHPA:1,2013-05-01T05:00:00Z,30.6671,-87.9365,3.693,8.66,1111122 
DISL,ioos:station:DISL:MHPA:1,2013-05-01T05:30:00Z,30.6671,-87.9365,3.623,8.12,1111122 
DISL,ioos:station:DISL:MHPA:1,2013-05-01T06:00:00Z,30.6671,-87.9365,3.559,8.09,1111122 
DISL,ioos:station:DISL:MHPA:1,2013-05-01T06:30:00Z,30.6671,-87.9365,3.484,7.92,1111122 
DISL,ioos:station:DISL:MHPA:1,2013-05-01T07:00:00Z,30.6671,-87.9365,3.423,7.7,1111122 
DISL,ioos:station:DISL:MHPA:1,2013-05-01T07:30:00Z,30.6671,-87.9365,3.381,7.79,1111122 
DISL,ioos:station:DISL:MHPA:1,2013-05-01T08:00:00Z,30.6671,-87.9365,3.381,7.91,1111122 
DISL,ioos:station:DISL:MHPA:1,2013-05-01T08:30:00Z,30.6671,-87.9365,3.399,7.93,1111122 
DISL,ioos:station:DISL:MHPA:1,2013-05-01T09:00:00Z,30.6671,-87.9365,3.339,8.13,1111122 
DISL,ioos:station:DISL:MHPA:1,2013-05-01T09:30:00Z,30.6671,-87.9365,3.282,7.8,1111122 
DISL,ioos:station:DISL:MHPA:1,2013-05-01T10:00:00Z,30.6671,-87.9365,3.273,7.27,1111122 
DISL,ioos:station:DISL:MHPA:1,2013-05-01T10:30:00Z,30.6671,-87.9365,3.362,7.16,1111122 
DISL,ioos:station:DISL:MHPA:1,2013-05-01T11:00:00Z,30.6671,-87.9365,3.385,7.53,1111122 
DISL,ioos:station:DISL:MHPA:1,2013-05-01T11:30:00Z,30.6671,-87.9365,3.439,7.53,1111122 
DISL,ioos:station:DISL:MHPA:1,2013-05-01T12:00:00Z,30.6671,-87.9365,3.583,7.57,1111122 
DISL,ioos:station:DISL:MHPA:1,2013-05-01T12:30:00Z,30.6671,-87.9365,3.715,7.61,1111122 
DISL,ioos:station:DISL:MHPA:1,2013-05-01T13:00:00Z,30.6671,-87.9365,3.785,7.62,1111122 
DISL,ioos:station:DISL:MHPA:1,2013-05-01T13:30:00Z,30.6671,-87.9365,3.931,7.52,1111122 
DISL,ioos:station:DISL:MHPA:1,2013-05-01T14:00:00Z,30.6671,-87.9365,4.039,7.36,1111122 
DISL,ioos:station:DISL:MHPA:1,2013-05-01T14:30:00Z,30.6671,-87.9365,4.088,7.31,1111122 
DISL,ioos:station:DISL:MHPA:1,2013-05-01T15:00:00Z,30.6671,-87.9365,4.225,7.25,1111122 
DISL,ioos:station:DISL:MHPA:1,2013-05-01T15:30:00Z,30.6671,-87.9365,4.362,7.57,1111122 
DISL,ioos:station:DISL:MHPA:1,2013-05-01T16:00:00Z,30.6671,-87.9365,4.426,7.64,1111122 
DISL,ioos:station:DISL:MHPA:1,2013-05-01T16:30:00Z,30.6671,-87.9365,4.545,7.6,1111122 
DISL,ioos:station:DISL:MHPA:1,2013-05-01T17:00:00Z,30.6671,-87.9365,4.735,7.8,1111122 
DISL,ioos:station:DISL:MHPA:1,2013-05-01T17:30:00Z,30.6671,-87.9365,4.82,7.64,1111122 
DISL,ioos:station:DISL:MHPA:1,2013-05-01T18:00:00Z,30.6671,-87.9365,4.9,7.82,1111122 
DISL,ioos:station:DISL:MHPA:1,2013-05-01T18:30:00Z,30.6671,-87.9365,4.871,7.82,1111122 
DISL,ioos:station:DISL:MHPA:1,2013-05-01T19:00:00Z,30.6671,-87.9365,4.836,8.12,1111122 
DISL,ioos:station:DISL:MHPA:1,2013-05-01T19:30:00Z,30.6671,-87.9365,4.779,7.96,1111122 
DISL,ioos:station:DISL:MHPA:1,2013-05-01T20:00:00Z,30.6671,-87.9365,4.942,7.93,1111122 
DISL,ioos:station:DISL:MHPA:1,2013-05-01T20:30:00Z,30.6671,-87.9365,5.001,7.84,1111122 
DISL,ioos:station:DISL:MHPA:1,2013-05-01T21:00:00Z,30.6671,-87.9365,5.036,7.93,1111122 
DISL,ioos:station:DISL:MHPA:1,2013-05-01T21:30:00Z,30.6671,-87.9365,5.034,7.93,1111122 
DISL,ioos:station:DISL:MHPA:1,2013-05-01T22:00:00Z,30.6671,-87.9365,5.105,7.84,1111122 
DISL,ioos:station:DISL:MHPA:1,2013-05-01T22:30:00Z,30.6671,-87.9365,5.113,7.85,1111122 
DISL,ioos:station:DISL:MHPA:1,2013-05-01T23:00:00Z,30.6671,-87.9365,4.992,8.11,1111122 
DISL,ioos:station:DISL:MHPA:1,2013-05-01T23:30:00Z,30.6671,-87.9365,4.914,8.11,1111122 
DISL,ioos:station:DISL:MHPA:1,2013-05-02T00:00:00Z,30.6671,-87.9365,4.858,8.12,1111122 
DISL,ioos:station:DISL:MHPA:1,2013-05-02T00:30:00Z,30.6671,-87.9365,4.762,8.18,1111122 
DISL,ioos:station:DISL:MHPA:1,2013-05-02T01:00:00Z,30.6671,-87.9365,4.84,8.12,1111122 
DISL,ioos:station:DISL:MHPA:1,2013-05-02T01:30:00Z,30.6671,-87.9365,4.94,8.08,1111122 
DISL,ioos:station:DISL:MHPA:1,2013-05-02T02:00:00Z,30.6671,-87.9365,4.745,8.06,1111122 
DISL,ioos:station:DISL:MHPA:1,2013-05-02T02:30:00Z,30.6671,-87.9365,4.653,7.97,1111122 
DISL,ioos:station:DISL:MHPA:1,2013-05-02T03:00:00Z,30.6671,-87.9365,4.733,7.95,1111122 
DISL,ioos:station:DISL:MHPA:1,2013-05-02T03:30:00Z,30.6671,-87.9365,4.963,8.0,1111122 
DISL,ioos:station:DISL:MHPA:1,2013-05-02T04:00:00Z,30.6671,-87.9365,5.17,7.62,1111122 
DISL,ioos:station:DISL:MHPA:1,2013-05-02T04:30:00Z,30.6671,-87.9365,4.927,7.82,1111122 
DISL,ioos:station:DISL:MHPA:1,2013-05-02T05:00:00Z,30.6671,-87.9365,4.715,7.52,1111122 
DISL,ioos:station:DISL:MHPA:1,2013-05-02T05:30:00Z,30.6671,-87.9365,4.995,7.67,1111122 
DISL,ioos:station:DISL:MHPA:1,2013-05-02T06:00:00Z,30.6671,-87.9365,4.978,7.67,1111122 
DISL,ioos:station:DISL:MHPA:1,2013-05-02T06:30:00Z,30.6671,-87.9365,4.697,7.63,1111122 
DISL,ioos:station:DISL:MHPA:1,2013-05-02T07:00:00Z,30.6671,-87.9365,4.752,7.68,1111122 
DISL,ioos:station:DISL:MHPA:1,2013-05-02T07:30:00Z,30.6671,-87.9365,4.616,7.46,1111122 
DISL,ioos:station:DISL:MHPA:1,2013-05-02T08:00:00Z,30.6671,-87.9365,4.404,7.51,1111122 
DISL,ioos:station:DISL:MHPA:1,2013-05-02T08:30:00Z,30.6671,-87.9365,4.457,7.64,1111122 
DISL,ioos:station:DISL:MHPA:1,2013-05-02T09:00:00Z,30.6671,-87.9365,4.388,7.51,1111122 
DISL,ioos:station:DISL:MHPA:1,2013-05-02T09:30:00Z,30.6671,-87.9365,4.455,7.61,1111122 
DISL,ioos:station:DISL:MHPA:1,2013-05-02T10:00:00Z,30.6671,-87.9365,4.508,7.41,1111122 
DISL,ioos:station:DISL:MHPA:1,2013-05-02T10:30:00Z,30.6671,-87.9365,4.563,7.48,1111122 
DISL,ioos:station:DISL:MHPA:1,2013-05-02T11:00:00Z,30.6671,-87.9365,4.503,7.37,1111122 
DISL,ioos:station:DISL:MHPA:1,2013-05-02T11:30:00Z,30.6671,-87.9365,4.387,7.47,1111122 
DISL,ioos:station:DISL:MHPA:1,2013-05-02T12:00:00Z,30.6671,-87.9365,4.384,7.58,1111122 
DISL,ioos:station:DISL:MHPA:1,2013-05-02T12:30:00Z,30.6671,-87.9365,4.23,7.57,1111122 
DISL,ioos:station:DISL:MHPA:1,2013-05-02T13:00:00Z,30.6671,-87.9365,4.14,7.46,1111122 
DISL,ioos:station:DISL:MHPA:1,2013-05-02T13:30:00Z,30.6671,-87.9365,4.203,7.55,1111122 
DISL,ioos:station:DISL:MHPA:1,2013-05-02T14:00:00Z,30.6671,-87.9365,4.233,7.5,1111122 
DISL,ioos:station:DISL:MHPA:1,2013-05-02T14:30:00Z,30.6671,-87.9365,4.208,7.48,1111122 
DISL,ioos:station:DISL:MHPA:1,2013-05-02T15:00:00Z,30.6671,-87.9365,4.159,7.61,1111122 
DISL,ioos:station:DISL:MHPA:1,2013-05-02T15:30:00Z,30.6671,-87.9365,4.174,7.63,1111122 
DISL,ioos:station:DISL:MHPA:1,2013-05-02T16:00:00Z,30.6671,-87.9365,4.255,7.75,1111122 
DISL,ioos:station:DISL:MHPA:1,2013-05-02T16:30:00Z,30.6671,-87.9365,4.27,7.98,1111122 
DISL,ioos:station:DISL:MHPA:1,2013-05-02T17:00:00Z,30.6671,-87.9365,4.221,8.03,1111122 
DISL,ioos:station:DISL:MHPA:1,2013-05-02T17:30:00Z,30.6671,-87.9365,4.244,7.95,1111122 
DISL,ioos:station:DISL:MHPA:1,2013-05-02T18:00:00Z,30.6671,-87.9365,4.354,7.91,1111122 
DISL,ioos:station:DISL:MHPA:1,2013-05-02T18:30:00Z,30.6671,-87.9365,4.527,7.99,1111122 
DISL,ioos:station:DISL:MHPA:1,2013-05-02T19:00:00Z,30.6671,-87.9365,4.579,8.16,1111122 
DISL,ioos:station:DISL:MHPA:1,2013-05-02T19:30:00Z,30.6671,-87.9365,4.59,8.36,1111122 
DISL,ioos:station:DISL:MHPA:1,2013-05-02T20:00:00Z,30.6671,-87.9365,4.632,8.22,1111122 
DISL,ioos:station:DISL:MHPA:1,2013-05-02T20:30:00Z,30.6671,-87.9365,4.713,8.25,1111122 
DISL,ioos:station:DISL:MHPA:1,2013-05-02T21:00:00Z,30.6671,-87.9365,4.693,8.5,1111122 
DISL,ioos:station:DISL:MHPA:1,2013-05-02T21:30:00Z,30.6671,-87.9365,4.753,8.46,1111122 
DISL,ioos:station:DISL:MHPA:1,2013-05-02T22:00:00Z,30.6671,-87.9365,4.909,8.43,1111122 
DISL,ioos:station:DISL:MHPA:1,2013-05-02T22:30:00Z,30.6671,-87.9365,4.912,8.65,1111122 
DISL,ioos:station:DISL:MHPA:1,2013-05-02T23:00:00Z,30.6671,-87.9365,4.839,8.62,1111122 
DISL,ioos:station:DISL:MHPA:1,2013-05-02T23:30:00Z,30.6671,-87.9365,4.796,8.57,1111122 
DISL,ioos:station:DISL:MHPA:1,2013-05-03T00:00:00Z,30.6671,-87.9365,4.742,8.55,1111122 
DISL,ioos:station:DISL:MHPA:1,2013-05-03T00:30:00Z,30.6671,-87.9365,4.682,8.47,1111122 
DISL,ioos:station:DISL:MHPA:1,2013-05-03T01:00:00Z,30.6671,-87.9365,4.638,8.48,1111122 
DISL,ioos:station:DISL:MHPA:1,2013-05-03T01:30:00Z,30.6671,-87.9365,4.522,8.45,1111122 
DISL,ioos:station:DISL:MHPA:1,2013-05-03T02:00:00Z,30.6671,-87.9365,4.458,8.36,1111122 
DISL,ioos:station:DISL:MHPA:1,2013-05-03T02:30:00Z,30.6671,-87.9365,4.449,8.5,1111122 
DISL,ioos:station:DISL:MHPA:1,2013-05-03T03:00:00Z,30.6671,-87.9365,4.344,8.38,1111122 
DISL,ioos:station:DISL:MHPA:1,2013-05-03T03:30:00Z,30.6671,-87.9365,4.286,8.33,1111122 
DISL,ioos:station:DISL:MHPA:1,2013-05-03T04:00:00Z,30.6671,-87.9365,4.256,8.37,1111122 
DISL,ioos:station:DISL:MHPA:1,2013-05-03T04:30:00Z,30.6671,-87.9365,4.206,8.36,1111122 
DISL,ioos:station:DISL:MHPA:1,2013-05-03T05:00:00Z,30.6671,-87.9365,4.148,8.37,1111122 
DISL,ioos:station:DISL:MHPA:1,2013-05-03T05:30:00Z,30.6671,-87.9365,4.051,8.18,1111122 
DISL,ioos:station:DISL:MHPA:1,2013-05-03T06:00:00Z,30.6671,-87.9365,3.929,8.26,1111122 
DISL,ioos:station:DISL:MHPA:1,2013-05-03T06:30:00Z,30.6671,-87.9365,3.787,8.01,1111122 
DISL,ioos:station:DISL:MHPA:1,2013-05-03T07:00:00Z,30.6671,-87.9365,3.703,8.09,1111122 
DISL,ioos:station:DISL:MHPA:1,2013-05-03T07:30:00Z,30.6671,-87.9365,3.708,8.04,1111122 
DISL,ioos:station:DISL:MHPA:1,2013-05-03T08:00:00Z,30.6671,-87.9365,3.69,8.06,1111122 
DISL,ioos:station:DISL:MHPA:1,2013-05-03T08:30:00Z,30.6671,-87.9365,3.647,8.09,1111122 
DISL,ioos:station:DISL:MHPA:1,2013-05-03T09:00:00Z,30.6671,-87.9365,3.625,8.09,1111122 
DISL,ioos:station:DISL:MHPA:1,2013-05-03T09:30:00Z,30.6671,-87.9365,3.635,8.03,1111122 
DISL,ioos:station:DISL:MHPA:1,2013-05-03T10:00:00Z,30.6671,-87.9365,3.653,8.05,1111122 
DISL,ioos:station:DISL:MHPA:1,2013-05-03T10:30:00Z,30.6671,-87.9365,3.705,7.97,1111122 
DISL,ioos:station:DISL:MHPA:1,2013-05-03T11:00:00Z,30.6671,-87.9365,3.75,7.85,1111122 
DISL,ioos:station:DISL:MHPA:1,2013-05-03T11:30:00Z,30.6671,-87.9365,3.771,7.92,1111122 
DISL,ioos:station:DISL:MHPA:1,2013-05-03T12:00:00Z,30.6671,-87.9365,3.843,7.84,1111122 
DISL,ioos:station:DISL:MHPA:1,2013-05-03T12:30:00Z,30.6671,-87.9365,3.922,7.83,1111122 
DISL,ioos:station:DISL:MHPA:1,2013-05-03T13:00:00Z,30.6671,-87.9365,4.03,7.78,1111122 
DISL,ioos:station:DISL:MHPA:1,2013-05-03T13:30:00Z,30.6671,-87.9365,4.088,7.68,1111122 
DISL,ioos:station:DISL:MHPA:1,2013-05-03T14:00:00Z,30.6671,-87.9365,4.165,7.31,1111122 
DISL,ioos:station:DISL:MHPA:1,2013-05-03T14:30:00Z,30.6671,-87.9365,4.229,7.55,1111122 
DISL,ioos:station:DISL:MHPA:1,2013-05-03T15:00:00Z,30.6671,-87.9365,4.298,7.57,1111122 
DISL,ioos:station:DISL:MHPA:1,2013-05-03T15:30:00Z,30.6671,-87.9365,4.359,7.96,1111122 
DISL,ioos:station:DISL:MHPA:1,2013-05-03T16:00:00Z,30.6671,-87.9365,4.467,7.96,1111122 
DISL,ioos:station:DISL:MHPA:1,2013-05-03T16:30:00Z,30.6671,-87.9365,4.584,8.01,1111122 
DISL,ioos:station:DISL:MHPA:1,2013-05-03T17:00:00Z,30.6671,-87.9365,4.62,8.28,1111122 
DISL,ioos:station:DISL:MHPA:1,2013-05-03T17:30:00Z,30.6671,-87.9365,4.638,8.31,1111122 
DISL,ioos:station:DISL:MHPA:1,2013-05-03T18:00:00Z,30.6671,-87.9365,4.655,8.3,1111122 
DISL,ioos:station:DISL:MHPA:1,2013-05-03T18:30:00Z,30.6671,-87.9365,4.627,8.33,1111122 
DISL,ioos:station:DISL:MHPA:1,2013-05-03T19:00:00Z,30.6671,-87.9365,4.646,8.23,1111122 
DISL,ioos:station:DISL:MHPA:1,2013-05-03T19:30:00Z,30.6671,-87.9365,4.675,8.25,1111122 
DISL,ioos:station:DISL:MHPA:1,2013-05-03T20:00:00Z,30.6671,-87.9365,4.643,8.46,1111122 
DISL,ioos:station:DISL:MHPA:1,2013-05-03T20:30:00Z,30.6671,-87.9365,4.602,8.48,1111122 
DISL,ioos:station:DISL:MHPA:1,2013-05-03T21:00:00Z,30.6671,-87.9365,4.591,8.33,1111122 
DISL,ioos:station:DISL:MHPA:1,2013-05-03T21:30:00Z,30.6671,-87.9365,4.59,8.25,1111122 
DISL,ioos:station:DISL:MHPA:1,2013-05-03T22:00:00Z,30.6671,-87.9365,4.577,8.42,1111122 
DISL,ioos:station:DISL:MHPA:1,2013-05-03T22:30:00Z,30.6671,-87.9365,4.576,8.84,1111122 
DISL,ioos:station:DISL:MHPA:1,2013-05-03T23:00:00Z,30.6671,-87.9365,4.581,8.9,1111122 
DISL,ioos:station:DISL:MHPA:1,2013-05-03T23:30:00Z,30.6671,-87.9365,4.598,8.81,1111122 
DISL,ioos:station:DISL:MHPA:1,2013-05-04T00:00:00Z,30.6671,-87.9365,4.604,8.71,1111122 
DISL,ioos:station:DISL:MHPA:1,2013-05-04T00:30:00Z,30.6671,-87.9365,4.52,8.19,1111122 
DISL,ioos:station:DISL:MHPA:1,2013-05-04T01:00:00Z,30.6671,-87.9365,4.345,8.17,1111122 
DISL,ioos:station:DISL:MHPA:1,2013-05-04T01:30:00Z,30.6671,-87.9365,4.165,8.24,1111122 
DISL,ioos:station:DISL:MHPA:1,2013-05-04T02:00:00Z,30.6671,-87.9365,3.996,8.23,1111122 
DISL,ioos:station:DISL:MHPA:1,2013-05-04T02:30:00Z,30.6671,-87.9365,3.796,8.25,1111122 
DISL,ioos:station:DISL:MHPA:1,2013-05-04T03:00:00Z,30.6671,-87.9365,3.653,8.23,1111122 
DISL,ioos:station:DISL:MHPA:1,2013-05-04T03:30:00Z,30.6671,-87.9365,3.478,8.32,1111122 
DISL,ioos:station:DISL:MHPA:1,2013-05-04T04:00:00Z,30.6671,-87.9365,3.374,8.25,1111122 
DISL,ioos:station:DISL:MHPA:1,2013-05-04T04:30:00Z,30.6671,-87.9365,3.297,8.23,1111122 
DISL,ioos:station:DISL:MHPA:1,2013-05-04T05:00:00Z,30.6671,-87.9365,3.223,8.35,1111122 
DISL,ioos:station:DISL:MHPA:1,2013-05-04T05:30:00Z,30.6671,-87.9365,3.104,8.21,1111122 
DISL,ioos:station:DISL:MHPA:1,2013-05-04T06:00:00Z,30.6671,-87.9365,2.956,8.22,1111122 
DISL,ioos:station:DISL:MHPA:1,2013-05-04T06:30:00Z,30.6671,-87.9365,2.828,8.15,1111122 
DISL,ioos:station:DISL:MHPA:1,2013-05-04T07:00:00Z,30.6671,-87.9365,2.716,8.19,1111122 
DISL,ioos:station:DISL:MHPA:1,2013-05-04T07:30:00Z,30.6671,-87.9365,2.612,8.19,1111122 
DISL,ioos:station:DISL:MHPA:1,2013-05-04T08:00:00Z,30.6671,-87.9365,2.517,8.08,1111122 
DISL,ioos:station:DISL:MHPA:1,2013-05-04T08:30:00Z,30.6671,-87.9365,2.431,8.19,1111122 
DISL,ioos:station:DISL:MHPA:1,2013-05-04T09:00:00Z,30.6671,-87.9365,2.347,8.22,1111122 
DISL,ioos:station:DISL:MHPA:1,2013-05-04T09:30:00Z,30.6671,-87.9365,2.277,8.21,1111122 
DISL,ioos:station:DISL:MHPA:1,2013-05-04T10:00:00Z,30.6671,-87.9365,2.215,8.15,1111122 
DISL,ioos:station:DISL:MHPA:1,2013-05-04T10:30:00Z,30.6671,-87.9365,2.165,7.44,1111122 
DISL,ioos:station:DISL:MHPA:1,2013-05-04T11:00:00Z,30.6671,-87.9365,2.12,8.08,1111122 
DISL,ioos:station:DISL:MHPA:1,2013-05-04T11:30:00Z,30.6671,-87.9365,2.081,8.08,1111122 
DISL,ioos:station:DISL:MHPA:1,2013-05-04T12:00:00Z,30.6671,-87.9365,2.048,7.23,1111122 
DISL,ioos:station:DISL:MHPA:1,2013-05-04T12:30:00Z,30.6671,-87.9365,2.034,8.01,1111122 
DISL,ioos:station:DISL:MHPA:1,2013-05-04T13:00:00Z,30.6671,-87.9365,2.054,8.11,1111122 
DISL,ioos:station:DISL:MHPA:1,2013-05-04T13:30:00Z,30.6671,-87.9365,2.108,8.03,1111122 
DISL,ioos:station:DISL:MHPA:1,2013-05-04T14:00:00Z,30.6671,-87.9365,2.196,7.96,1111122 
DISL,ioos:station:DISL:MHPA:1,2013-05-04T14:30:00Z,30.6671,-87.9365,2.298,8.14,1111122 
DISL,ioos:station:DISL:MHPA:1,2013-05-04T15:00:00Z,30.6671,-87.9365,2.442,8.14,1111122 
DISL,ioos:station:DISL:MHPA:1,2013-05-04T15:30:00Z,30.6671,-87.9365,2.62,8.26,1111122 
DISL,ioos:station:DISL:MHPA:1,2013-05-04T16:00:00Z,30.6671,-87.9365,2.83,8.45,1111122 
DISL,ioos:station:DISL:MHPA:1,2013-05-04T16:30:00Z,30.6671,-87.9365,3.045,8.58,1111122 
DISL,ioos:station:DISL:MHPA:1,2013-05-04T17:00:00Z,30.6671,-87.9365,3.195,8.58,1111122 
DISL,ioos:station:DISL:MHPA:1,2013-05-04T17:30:00Z,30.6671,-87.9365,3.256,8.7,1111122 
DISL,ioos:station:DISL:MHPA:1,2013-05-04T18:00:00Z,30.6671,-87.9365,3.298,8.68,1111122 
DISL,ioos:station:DISL:MHPA:1,2013-05-04T18:30:00Z,30.6671,-87.9365,3.338,8.85,1111122 
DISL,ioos:station:DISL:MHPA:1,2013-05-04T19:00:00Z,30.6671,-87.9365,3.377,9.0,1111122 
DISL,ioos:station:DISL:MHPA:1,2013-05-04T19:30:00Z,30.6671,-87.9365,3.408,8.96,1111122 
DISL,ioos:station:DISL:MHPA:1,2013-05-04T20:00:00Z,30.6671,-87.9365,3.427,9.03,1111122 
DISL,ioos:station:DISL:MHPA:1,2013-05-04T20:30:00Z,30.6671,-87.9365,3.409,9.13,1111122 
DISL,ioos:station:DISL:MHPA:1,2013-05-04T21:00:00Z,30.6671,-87.9365,3.413,9.13,1111122 
DISL,ioos:station:DISL:MHPA:1,2013-05-04T21:30:00Z,30.6671,-87.9365,3.426,9.14,1111122 
DISL,ioos:station:DISL:MHPA:1,2013-05-04T22:00:00Z,30.6671,-87.9365,3.442,9.24,1111122 
DISL,ioos:station:DISL:MHPA:1,2013-05-04T22:30:00Z,30.6671,-87.9365,3.477,9.25,1111122 
DISL,ioos:station:DISL:MHPA:1,2013-05-04T23:00:00Z,30.6671,-87.9365,3.499,9.24,1111122 
DISL,ioos:station:DISL:MHPA:1,2013-05-04T23:30:00Z,30.6671,-87.9365,3.545,9.25,1111122 
DISL,ioos:station:DISL:MHPA:1,2013-05-05T00:00:00Z,30.6671,-87.9365,3.606,9.28,1111122 
DISL,ioos:station:DISL:MHPA:1,2013-05-05T00:30:00Z,30.6671,-87.9365,3.663,9.24,1111122 
DISL,ioos:station:DISL:MHPA:1,2013-05-05T01:00:00Z,30.6671,-87.9365,3.741,9.17,1111122 
DISL,ioos:station:DISL:MHPA:1,2013-05-05T01:30:00Z,30.6671,-87.9365,3.769,9.11,1111122 
DISL,ioos:station:DISL:MHPA:1,2013-05-05T02:00:00Z,30.6671,-87.9365,3.814,8.98,1111122 
DISL,ioos:station:DISL:MHPA:1,2013-05-05T02:30:00Z,30.6671,-87.9365,3.837,8.8,1111122 
DISL,ioos:station:DISL:MHPA:1,2013-05-05T03:00:00Z,30.6671,-87.9365,3.865,8.62,1111122 
DISL,ioos:station:DISL:MHPA:1,2013-05-05T03:30:00Z,30.6671,-87.9365,3.874,8.4,1111122 
DISL,ioos:station:DISL:MHPA:1,2013-05-05T04:00:00Z,30.6671,-87.9365,3.92,8.59,1111122 
DISL,ioos:station:DISL:MHPA:1,2013-05-05T04:30:00Z,30.6671,-87.9365,3.995,8.58,1111122 
DISL,ioos:station:DISL:MHPA:1,2013-05-05T05:00:00Z,30.6671,-87.9365,3.992,8.64,1111122 
DISL,ioos:station:DISL:MHPA:1,2013-05-05T05:30:00Z,30.6671,-87.9365,4.015,8.55,1111122 
DISL,ioos:station:DISL:MHPA:1,2013-05-05T06:00:00Z,30.6671,-87.9365,4.014,8.46,1111122 
DISL,ioos:station:DISL:MHPA:1,2013-05-05T06:30:00Z,30.6671,-87.9365,3.934,8.42,1111122 
DISL,ioos:station:DISL:MHPA:1,2013-05-05T07:00:00Z,30.6671,-87.9365,3.872,8.37,1111122 
DISL,ioos:station:DISL:MHPA:1,2013-05-05T07:30:00Z,30.6671,-87.9365,3.823,8.38,1111122 
DISL,ioos:station:DISL:MHPA:1,2013-05-05T08:00:00Z,30.6671,-87.9365,3.784,8.31,1111122 
DISL,ioos:station:DISL:MHPA:1,2013-05-05T08:30:00Z,30.6671,-87.9365,3.778,8.27,1111122 
DISL,ioos:station:DISL:MHPA:1,2013-05-05T09:00:00Z,30.6671,-87.9365,3.792,8.36,1111122 
DISL,ioos:station:DISL:MHPA:1,2013-05-05T09:30:00Z,30.6671,-87.9365,3.798,8.26,1111122 
DISL,ioos:station:DISL:MHPA:1,2013-05-05T10:00:00Z,30.6671,-87.9365,3.836,8.27,1111122 
DISL,ioos:station:DISL:MHPA:1,2013-05-05T10:30:00Z,30.6671,-87.9365,3.892,8.2,1111122 
DISL,ioos:station:DISL:MHPA:1,2013-05-05T11:00:00Z,30.6671,-87.9365,4.002,8.16,1111122 
DISL,ioos:station:DISL:MHPA:1,2013-05-05T11:30:00Z,30.6671,-87.9365,4.088,7.94,1111122 
DISL,ioos:station:DISL:MHPA:1,2013-05-05T12:00:00Z,30.6671,-87.9365,4.137,8.1,1111122 
DISL,ioos:station:DISL:MHPA:1,2013-05-05T12:30:00Z,30.6671,-87.9365,4.139,8.0,1111122 
DISL,ioos:station:DISL:MHPA:1,2013-05-05T13:00:00Z,30.6671,-87.9365,4.157,8.25,1111122 
DISL,ioos:station:DISL:MHPA:1,2013-05-05T13:30:00Z,30.6671,-87.9365,4.179,8.18,1111122 
DISL,ioos:station:DISL:MHPA:1,2013-05-05T14:00:00Z,30.6671,-87.9365,4.197,8.07,1111122 
DISL,ioos:station:DISL:MHPA:1,2013-05-05T14:30:00Z,30.6671,-87.9365,4.174,8.02,1111122 
DISL,ioos:station:DISL:MHPA:1,2013-05-05T15:00:00Z,30.6671,-87.9365,4.179,8.1,1111122 
DISL,ioos:station:DISL:MHPA:1,2013-05-05T15:30:00Z,30.6671,-87.9365,4.229,8.06,1111122 
DISL,ioos:station:DISL:MHPA:1,2013-05-05T16:00:00Z,30.6671,-87.9365,4.292,8.34,1111122 
DISL,ioos:station:DISL:MHPA:1,2013-05-05T16:30:00Z,30.6671,-87.9365,4.269,8.4,1111122 
DISL,ioos:station:DISL:MHPA:1,2013-05-05T17:00:00Z,30.6671,-87.9365,4.185,8.47,1111122 
DISL,ioos:station:DISL:MHPA:1,2013-05-05T17:30:00Z,30.6671,-87.9365,4.053,8.67,1111122 
DISL,ioos:station:DISL:MHPA:1,2013-05-05T18:00:00Z,30.6671,-87.9365,3.914,8.68,1111122 
DISL,ioos:station:DISL:MHPA:1,2013-05-05T18:30:00Z,30.6671,-87.9365,3.807,8.74,1111122 
DISL,ioos:station:DISL:MHPA:1,2013-05-05T19:00:00Z,30.6671,-87.9365,3.698,8.75,1111122 
DISL,ioos:station:DISL:MHPA:1,2013-05-05T19:30:00Z,30.6671,-87.9365,3.567,8.8,1111122 
DISL,ioos:station:DISL:MHPA:1,2013-05-05T20:00:00Z,30.6671,-87.9365,3.457,8.83,1111122 
DISL,ioos:station:DISL:MHPA:1,2013-05-05T20:30:00Z,30.6671,-87.9365,3.394,8.94,1111122 
DISL,ioos:station:DISL:MHPA:1,2013-05-05T21:00:00Z,30.6671,-87.9365,3.307,9.16,1111122 
DISL,ioos:station:DISL:MHPA:1,2013-05-05T21:30:00Z,30.6671,-87.9365,3.235,9.29,1111122 
DISL,ioos:station:DISL:MHPA:1,2013-05-05T22:00:00Z,30.6671,-87.9365,3.204,9.24,1111122 
DISL,ioos:station:DISL:MHPA:1,2013-05-05T22:30:00Z,30.6671,-87.9365,3.159,9.25,1111122 
DISL,ioos:station:DISL:MHPA:1,2013-05-05T23:00:00Z,30.6671,-87.9365,3.09,9.32,1111122 
DISL,ioos:station:DISL:MHPA:1,2013-05-05T23:30:00Z,30.6671,-87.9365,3.013,9.3,1111122 
DISL,ioos:station:DISL:MHPA:1,2013-05-06T00:00:00Z,30.6671,-87.9365,2.914,9.23,1111122 
DISL,ioos:station:DISL:MHPA:1,2013-05-06T00:30:00Z,30.6671,-87.9365,2.819,9.14,1111122 
DISL,ioos:station:DISL:MHPA:1,2013-05-06T01:00:00Z,30.6671,-87.9365,2.734,8.99,1111122 
DISL,ioos:station:DISL:MHPA:1,2013-05-06T01:30:00Z,30.6671,-87.9365,2.657,8.93,1111122 
DISL,ioos:station:DISL:MHPA:1,2013-05-06T02:00:00Z,30.6671,-87.9365,2.599,8.96,1111122 
DISL,ioos:station:DISL:MHPA:1,2013-05-06T02:30:00Z,30.6671,-87.9365,2.565,8.91,1111122 
DISL,ioos:station:DISL:MHPA:1,2013-05-06T03:00:00Z,30.6671,-87.9365,2.564,8.75,1111122 
DISL,ioos:station:DISL:MHPA:1,2013-05-06T03:30:00Z,30.6671,-87.9365,2.607,8.82,1111122 
DISL,ioos:station:DISL:MHPA:1,2013-05-06T04:00:00Z,30.6671,-87.9365,2.684,8.83,1111122 
DISL,ioos:station:DISL:MHPA:1,2013-05-06T04:30:00Z,30.6671,-87.9365,2.735,8.86,1111122 
DISL,ioos:station:DISL:MHPA:1,2013-05-06T05:00:00Z,30.6671,-87.9365,2.766,8.69,1111122 
DISL,ioos:station:DISL:MHPA:1,2013-05-06T05:30:00Z,30.6671,-87.9365,2.78,8.73,1111122 
DISL,ioos:station:DISL:MHPA:1,2013-05-06T06:00:00Z,30.6671,-87.9365,2.803,8.71,1111122 
DISL,ioos:station:DISL:MHPA:1,2013-05-06T06:30:00Z,30.6671,-87.9365,2.845,8.69,1111122 
DISL,ioos:station:DISL:MHPA:1,2013-05-06T07:00:00Z,30.6671,-87.9365,2.92,8.49,1111122 
DISL,ioos:station:DISL:MHPA:1,2013-05-06T07:30:00Z,30.6671,-87.9365,3.028,8.4,1111122 
DISL,ioos:station:DISL:MHPA:1,2013-05-06T08:00:00Z,30.6671,-87.9365,3.11,8.35,1111122 
DISL,ioos:station:DISL:MHPA:1,2013-05-06T08:30:00Z,30.6671,-87.9365,3.184,8.23,1111122 
DISL,ioos:station:DISL:MHPA:1,2013-05-06T09:00:00Z,30.6671,-87.9365,3.277,8.22,1111122 
DISL,ioos:station:DISL:MHPA:1,2013-05-06T09:30:00Z,30.6671,-87.9365,3.331,8.16,1111122 
DISL,ioos:station:DISL:MHPA:1,2013-05-06T10:00:00Z,30.6671,-87.9365,3.373,8.26,1111122 
DISL,ioos:station:DISL:MHPA:1,2013-05-06T10:30:00Z,30.6671,-87.9365,3.433,8.3,1111122 
DISL,ioos:station:DISL:MHPA:1,2013-05-06T11:00:00Z,30.6671,-87.9365,3.533,8.29,1111122 
DISL,ioos:station:DISL:MHPA:1,2013-05-06T11:30:00Z,30.6671,-87.9365,3.624,8.45,1111122 
DISL,ioos:station:DISL:MHPA:1,2013-05-06T12:00:00Z,30.6671,-87.9365,3.737,8.31,1111122 
DISL,ioos:station:DISL:MHPA:1,2013-05-06T12:30:00Z,30.6671,-87.9365,3.849,8.31,1111122 
DISL,ioos:station:DISL:MHPA:1,2013-05-06T13:00:00Z,30.6671,-87.9365,3.916,8.33,1111122 
DISL,ioos:station:DISL:MHPA:1,2013-05-06T13:30:00Z,30.6671,-87.9365,3.984,8.27,1111122 
DISL,ioos:station:DISL:MHPA:1,2013-05-06T14:00:00Z,30.6671,-87.9365,4.032,8.27,1111122 
DISL,ioos:station:DISL:MHPA:1,2013-05-06T14:30:00Z,30.6671,-87.9365,4.096,8.17,1111122 
DISL,ioos:station:DISL:MHPA:1,2013-05-06T15:00:00Z,30.6671,-87.9365,4.144,8.22,1111122 
DISL,ioos:station:DISL:MHPA:1,2013-05-06T15:30:00Z,30.6671,-87.9365,4.137,8.29,1111122 